Date,TemperatureHighF,TemperatureAvgF,TemperatureLowF,DewpointHighF,DewpointAvgF,DewpointLowF,HumidityHigh,HumidityAvg,HumidityLow,PressureMaxIn,PressureMinIn,WindSpeedMaxMPH,WindSpeedAvgMPH,GustSpeedMaxMPH,PrecipitationSumIn
2013-5-1,68.4,56.4,46.6,49.6,36.7,22.5,99,53,20,30.49,30.36,19,4,19,14.99
2013-5-2,69.4,56.0,42.3,40.1,33.5,18.8,87,47,15,30.51,30.40,19,4,19,15.86
2013-5-3,64.9,54.6,44.1,44.8,39.6,25.0,83,59,31,30.44,30.37,17,4,17,17.54
2013-5-4,64.8,51.5,40.3,43.1,39.2,36.4,95,65,39,30.38,30.27,20,4,20,19.75
2013-5-5,66.6,52.5,41.4,40.1,32.9,16.1,79,53,16,30.31,30.22,17,4,17,19.00
2013-5-6,56.3,48.8,40.8,52.9,46.2,36.5,98,91,69,30.25,30.18,12,3,12,21.23
2013-5-7,58.1,53.9,51.6,55.7,53.0,51.3,99,97,87,30.19,30.10,14,3,14,19.67
2013-5-8,68.9,55.6,47.3,53.3,49.0,42.5,99,81,45,30.15,30.07,12,2,12,15.33
2013-5-9,66.7,56.3,49.5,55.9,51.7,49.2,99,86,61,30.19,30.06,15,4,15,21.34
2013-5-10,73.0,60.7,54.1,60.3,54.5,50.1,99,81,53,30.20,30.02,16,3,16,17.65
2013-5-11,57.4,54.9,48.4,56.9,54.0,46.6,99,97,90,30.02,29.96,14,4,14,13.59
2013-5-12,48.2,42.7,36.3,46.6,31.9,23.5,98,68,42,30.13,29.95,23,8,23,2.23
2013-5-13,46.8,39.0,30.6,28.6,23.5,18.0,73,55,34,30.26,30.12,18,6,18,16.63
2013-5-14,56.7,43.8,29.1,35.0,28.3,21.6,79,56,35,30.28,30.11,16,3,16,17.20
2013-5-15,81.3,68.0,48.2,59.6,52.8,35.1,83,59,42,30.11,29.95,26,6,26,12.40
2013-5-16,71.4,64.0,56.7,60.4,56.3,49.2,99,78,48,30.18,30.00,14,4,14,16.23
2013-5-17,77.2,64.9,55.6,59.7,53.7,46.3,99,72,38,30.30,30.17,8,2,8,15.63
2013-5-18,71.4,61.2,53.2,60.3,54.0,44.4,99,78,61,30.33,30.27,14,4,14,17.24
2013-5-19,61.0,57.0,53.8,59.6,56.4,52.8,99,98,93,30.32,30.22,14,4,14,18.63
2013-5-20,80.4,68.7,57.9,66.1,62.4,57.7,99,82,55,30.26,30.17,11,2,11,17.32
2013-5-21,82.4,71.8,62.8,67.5,63.6,59.3,99,78,48,30.20,30.08,10,2,10,15.06
2013-5-22,82.8,69.1,60.4,65.1,60.3,57.4,94,75,47,30.14,30.04,14,3,14,19.65
2013-5-23,74.7,62.2,55.6,63.3,58.6,8.4,99,89,51,30.08,29.97,15,3,15,16.51
2013-5-24,55.6,40.9,35.1,55.3,37.9,28.0,99,89,74,30.33,30.00,20,7,20,2.03
2013-5-25,55.4,42.6,32.2,38.1,32.7,28.7,97,70,39,30.35,30.30,24,7,24,8.99
2013-5-26,60.6,48.1,34.7,37.9,33.6,28.5,82,59,36,30.38,30.31,16,4,16,20.61
2013-5-27,61.7,51.8,40.6,48.2,40.9,34.6,88,68,41,30.41,30.29,11,3,11,16.77
2013-5-28,79.0,61.5,50.2,68.4,56.4,46.5,99,84,59,30.31,30.23,14,4,14,13.97
2013-5-29,81.9,69.5,61.3,68.1,59.1,53.8,92,71,42,30.32,30.25,9,2,9,17.40
2013-5-30,94.8,74.2,61.0,66.7,61.6,57.0,93,68,34,30.41,30.31,11,2,11,15.38
2013-5-31,100.8,81.8,61.0,70.6,63.6,57.6,91,59,35,30.35,30.23,7,1,7,9.12